Mayport NS, FL

8:24 PM EST on February 20, 2018 (GMT -0500)
Mayport Naval Station / Adm. David L. McDonald Field

Weather History for KNRB - May, 2013

Change the Weather History Date:

Thursday, May 2, 2013

  Actual Average Record
Temperature  
Mean Temperature 68 °F -  
Max Temperature 72 °F 77 °F 93 °F (2002)
Min Temperature 66 °F 63 °F 53 °F (1999)
Cooling Degree Days 3    
Growing Degree Days 18 (Base 50)    
Moisture  
Dew Point 67 °F    
Average Humidity 94    
Maximum Humidity 100    
Minimum Humidity 83    
Precipitation  
Precipitation 2.27 in - - ()
Sea Level Pressure  
Sea Level Pressure 29.98 in    
Wind  
Wind Speed 17 mph (ENE)    
Max Wind Speed 28 mph    
Max Gust Speed 33 mph    
Visibility 4 miles    
Events Rain    
Averages and records for this station are not official NWS values.
T = Trace of Precipitation, MM = Missing Value Source: NWS Daily Summary

Daily Weather History Graph

Daily Weather History Graph

Search for Another Location

Airport or City:

Trip Planner

Search our weather history database for the weather conditions in past years. The results will help you decide how hot, cold, wet, or windy it might be!

Date:

Astronomy

May. 02, 2013 Rise Set
Actual Time 6:41 AM EDT 8:04 PM EDT
Civil Twilight 6:15 AM EDT 8:30 PM EDT
Nautical Twilight 5:45 AM EDT 9:00 PM EDT
Astronomical Twilight 5:13 AM EDT 9:32 PM EDT
Moon 1:56 AM EDT (5/2) 1:21 PM EDT (5/2)
Length of Visible Light 14h 14m
Length of Day
13h 23m
Waning Gibbous, 48% of the Moon is Illuminated
May 2
Waning Gibbous
May 9
New
May 18
First Quarter
May 25
Full
May 31
Last Quarter

Hourly Weather History & Observations

Time (EDT) Temp. Dew Point Humidity Pressure Visibility Wind Dir Wind Speed Gust Speed Precip Events Conditions
12:52 AM 66.9 °F 66.0 °F 97% 30.02 in 10.0 mi NNE 20.7 mph 27.6 mph N/A   Overcast
1:52 AM 68.0 °F 66.9 °F 96% 30.01 in 10.0 mi NNE 13.8 mph - N/A   Overcast
2:52 AM 68.0 °F 66.9 °F 96% 29.99 in 10.0 mi NNE 13.8 mph - N/A   Mostly Cloudy
3:17 AM 68.0 °F 66.2 °F 94% 29.98 in 8.0 mi NNE 17.3 mph 24.2 mph N/A   Overcast
3:31 AM 68.0 °F 66.2 °F 94% 29.97 in 8.0 mi NNE 16.1 mph - N/A   Overcast
3:52 AM 68.0 °F 66.9 °F 96% 29.97 in 8.0 mi NNE 16.1 mph - N/A   Mostly Cloudy
4:52 AM 69.1 °F 68.0 °F 96% 29.97 in 8.0 mi NE 12.7 mph - 0.02 in Rain Light Rain
5:04 AM 69.8 °F 68.0 °F 94% 29.97 in 5.0 mi ENE 15.0 mph 21.9 mph 0.02 in Rain Light Rain
5:12 AM 69.8 °F 68.0 °F 94% 29.96 in 2.5 mi ENE 17.3 mph - 0.07 in Rain Heavy Rain
5:30 AM 69.8 °F 68.0 °F 94% 29.96 in 4.0 mi NE 13.8 mph - 0.15 in Rain Rain
5:52 AM 69.1 °F 68.0 °F 96% 29.96 in 9.0 mi NE 13.8 mph - 0.15 in   Overcast
6:01 AM 69.8 °F 68.0 °F 94% 29.96 in 1.0 mi ENE 18.4 mph 24.2 mph 0.14 in Rain Heavy Rain
6:23 AM 69.8 °F 68.0 °F 94% 29.97 in 3.0 mi East 11.5 mph 21.9 mph 0.21 in Rain Light Rain
6:52 AM 69.1 °F 68.0 °F 96% 29.98 in 6.0 mi ENE 20.7 mph 24.2 mph 0.21 in   Overcast
7:52 AM 69.1 °F 68.0 °F 96% 29.98 in 5.0 mi ENE 20.7 mph - 0.02 in Rain Light Rain
8:52 AM 69.1 °F 68.0 °F 96% 29.99 in 8.0 mi ENE 17.3 mph - 0.02 in Rain Light Rain
9:17 AM 69.8 °F 68.0 °F 94% 30.00 in 4.0 mi ENE 18.4 mph 23.0 mph 0.01 in Rain Light Rain
9:52 AM 70.0 °F 68.0 °F 93% 30.00 in 4.0 mi East 19.6 mph 24.2 mph 0.05 in Rain Light Rain
10:29 AM 69.8 °F 69.8 °F 100% 30.00 in 2.0 mi ENE 17.3 mph 23.0 mph 0.05 in Rain Light Rain
10:52 AM 68.0 °F 66.9 °F 96% 30.01 in 2.0 mi ESE 20.7 mph 33.4 mph 0.10 in Rain Rain
11:02 AM 66.2 °F 66.2 °F 100% 30.02 in 1.5 mi ESE 13.8 mph - 0.06 in Rain Rain
11:52 AM 66.9 °F 66.0 °F 97% 30.03 in 1.0 mi ENE 16.1 mph - 0.27 in Rain Rain
12:49 PM 66.2 °F 66.2 °F 100% 30.01 in 2.0 mi East 13.8 mph - 0.27 in Rain Rain
12:52 PM 66.9 °F 66.0 °F 97% 30.01 in 2.0 mi East 17.3 mph - 0.28 in Rain Rain
1:52 PM 68.0 °F 66.9 °F 96% 30.00 in 1.0 mi ESE 9.2 mph - 0.22 in Rain Rain
2:20 PM 68.0 °F 66.2 °F 94% 30.00 in 2.0 mi East 11.5 mph - 0.07 in Rain Rain
2:52 PM 69.1 °F 68.0 °F 96% 29.99 in 2.0 mi East 15.0 mph - 0.13 in Rain Light Rain
3:52 PM 70.0 °F 68.0 °F 93% 29.97 in 3.0 mi ENE 15.0 mph - 0.10 in Rain Light Rain
4:52 PM 70.0 °F 66.9 °F 90% 29.95 in 4.0 mi ENE 18.4 mph - 0.02 in Rain Light Rain
5:52 PM 69.1 °F 66.9 °F 93% 29.95 in 3.0 mi ENE 18.4 mph 24.2 mph 0.07 in Rain Heavy Rain
6:00 PM 69.8 °F 66.2 °F 88% 29.94 in 1.0 mi ENE 17.3 mph 24.2 mph 0.04 in Rain Heavy Rain
6:52 PM 69.1 °F 66.0 °F 90% 29.93 in 2.0 mi ENE 20.7 mph 27.6 mph 0.16 in Rain Light Rain
7:52 PM 69.1 °F 66.0 °F 90% 29.94 in 1.0 mi ENE 27.6 mph 33.4 mph 0.06 in Rain Light Rain
8:39 PM 69.8 °F 64.4 °F 83% 29.94 in 4.0 mi ENE 24.2 mph 33.4 mph 0.01 in Rain Light Rain
8:52 PM 70.0 °F 66.0 °F 87% 29.94 in 10.0 mi ENE 21.9 mph 32.2 mph 0.01 in Rain Light Rain
9:52 PM 69.1 °F 66.0 °F 90% 29.94 in 5.0 mi ENE 25.3 mph 31.1 mph 0.02 in Rain Light Rain
10:52 PM 69.1 °F 68.0 °F 96% 29.95 in 5.0 mi ENE 19.6 mph - 0.13 in Rain Light Rain
11:52 PM 69.1 °F 68.0 °F 96% 29.94 in 3.0 mi East 24.2 mph 32.2 mph 0.23 in Rain Rain